sat.trackr.live / text

‹ back to catalog

STARLINK-32000

NORAD 60289 · 2024-132M

PAYLOAD ACTIVE UNKNOWN

§ Identity

Operator
Country
US
Launch date
2024-07-28
Launch site
AFETR
Launch vehicle
Mass (kg)
RCS (m²)

Purposes: comms

External: N2YO · Heavens-Above · Gunter

§ Orbital elements

Epoch: 2026-05-25T04:25:47.860608Z

Period
94.01 min
Inclination
53.1621°
Eccentricity
0.0001186
Mean motion
15.31707454 rev/d
Perigee alt
469.9 km
Apogee alt
471.5 km
Semi-major
6,848.9 km
B*
5.1971e-5
RAAN
57.0127°
Arg perigee
94.3753°
Mean anomaly
265.7384°
Rev number
10,327

§ Raw data

STARLINK-320001 60289U 24132M   26145.18458172  .00001248  00000+0  51971-4 0  99922 60289  53.1621  57.0127 0001186  94.3753 265.7384 15.31707454103279

JSON: /api/v1/satellites/60289 · /tle

For live sub-satellite position, see the globe view (requires WebGL).

§ Visibility from observer

Set your observer location to see the next 7 days of passes ≥ 10°. The values pass through the URL so the page stays shareable.

No JS? Fill the form by hand. The geolocation button needs JavaScript.